Location: Boda
(47.1872°N, 9.5454°E)
Time: 09:49:55
(UTC+00:00)

SL-08 R/B - Pass Details

Date: 14 May 2021
Orbit: 674 x 739 km, 98.5° (Epoch: 16 June)

Event Time Altitude Azimuth Distance (km) Brightness Sun altitude
Rises 02:41:58 0° 169° (S) 3,066 6.3 -9.8°
Reaches altitude 10° 02:44:14 10° 172° (S) 2,143 5.5 -9.6°
Maximum altitude 02:48:54 73° 257° (WSW) 721 3.2 -9.0°
Drops below altitude 10° 02:53:33 10° 342° (NNW) 2,129 6.1 -8.3°
Sets 02:55:48 0° 345° (NNW) 3,044 6.9 -8.1°
